Location: Rochester
(43.1547°N, 77.6158°W)
Time: 11:59:43
(UTC-05:00)

Tiangong 1 - Visible Passes

Search period start: 23 November 2017 00:00
Search period end: 03 December 2017 00:00
Orbit: 284 x 308 km, 42.8° (Epoch: 23 November)

Date Brightness Start Highest point End Pass type
(mag) Time Alt. Az. Time Alt. Az. Time Alt. Az.
25 Nov 2.7 17:49:13 10° SSW 17:50:58 16° SSE 17:51:39 15° SE visible
26 Nov 1.9 17:54:46 10° SW 17:57:03 27° SSE 17:57:40 24° SE visible
27 Nov 1.1 18:00:33 10° WSW 18:03:04 44° SSE 18:03:29 39° SE visible
28 Nov 0.5 18:06:24 10° WSW 18:08:57 65° S 18:09:08 62° SE visible
29 Nov 0.5 18:12:09 10° W 18:14:39 78° SW 18:14:39 78° SW visible
30 Nov 1.0 18:17:47 10° W 18:20:01 61° W 18:20:01 61° W visible
01 Dec 1.6 18:23:17 10° W 18:25:17 46° WSW 18:25:17 46° WSW visible
02 Dec 2.1 18:28:40 10° W 18:30:27 36° WSW 18:30:27 36° WSW visible
